Temp
-22 -22 -21 -21 -21 -21 -21 -21 -20 -20 -19 -19 -18 -18 -18 -19 -18 -18 -18 -18 -18 -18 -17 -17 -17 -17 -17 -17 -17 -17 -17 -17 -17 -17 -17 -17 -18 -18 -18 -18 -18 -18 -18 -18
-23 -23 -22 -22 -22 -21 -22 -22 -21 -22 -20 -19 -19 -19 -19 -19 -19 -18 -18 -18 -18 -18 -18 -18 -18 -17 -17 -18 -18 -18 -18 -17 -17 -17 -17 -17 -17 -18 -18 -18 -18 -18 -18 -18
-23 -23 -23 -23 -23 -23 -22 -22 -22 -21 -21 -20 -19 -20 -19 -19 -19 -19 -18 -18 -19 -18 -18 -18 -18 -18 -18 -18 -18 -18 -18 -17 -18 -17 -17 -17 -17 -17 -18 -18 -18 -18 -18 -18
-23 -23 -23 -23 -23 -24 -23 -22 -22 -22 -21 -20 -20 -20 -20 -19 -19 -19 -19 -19 -19 -19 -19 -18 -18 -18 -18 -18 -18 -18 -18 -18 -18 -18 -18 -18 -18 -18 -18 -18 -18 -18 -18 -18
-23 -23 -23 -23 -23 -24 -24 -23 -23 -22 -22 -21 -21 -20 -20 -20 -20 -19 -19 -19 -19 -19 -19 -19 -18 -18 -18 -19 -18 -18 -18 -18 -18 -18 -18 -18 -18 -18 -18 -18 -18 -18 -18 -18
-23 -23 -23 -23 -23 -23 -23 -23 -23 -23 -23 -22 -21 -21 -21 -20 -21 -20 -20 -19 -20 -19 -19 -19 -19 -19 -18 -19 -18 -18 -18 -18 -18 -18 -18 -18 -18 -18 -18 -18 -18 -18 -18 -18
-23 -23 -23 -23 -23 -23 -23 -23 -23 -23 -23 -22 -22 -22 -21 -21 -21 -21 -21 -20 -20 -20 -20 -19 -19 -19 -18 -19 -18 -18 -18 -18 -18 -18 -18 -18 -18 -18 -18 -18 -18 -18 -18 -18
-25 -24 -24 -23 -23 -23 -23 -23 -23 -23 -23 -23 -23 -22 -22 -22 -22 -21 -21 -21 -20 -21 -20 -20 -19 -19 -19 -18 -18 -18 -18 -18 -18 -18 -18 -18 -18 -18 -18 -18 -18 -18 -18 -18
-26 -25 -25 -25 -25 -24 -23 -23 -24 -23 -23 -23 -23 -23 -23 -22 -22 -22 -21 -21 -21 -21 -20 -19 -19 -19 -18 -18 -18 -18 -18 -18 -18 -18 -18 -18 -18 -18 -18 -18 -18 -18 -18 -18
-29 -28 -27 -26 -26 -25 -24 -24 -24 -24 -23 -23 -23 -23 -23 -23 -22 -22 -22 -22 -22 -21 -20 -19 -19 -19 -19 -19 -18 -19 -18 -18 -18 -18 -18 -18 -18 -18 -18 -18 -18 -18 -18 -19
-33 -32 -31 -29 -28 -27 -26 -25 -25 -25 -23 -23 -23 -23 -23 -23 -23 -22 -22 -23 -22 -21 -21 -20 -19 -19 -19 -19 -18 -19 -19 -18 -18 -18 -18 -18 -18 -18 -18 -19 -19 -18 -19 -19
-34 -34 -34 -33 -31 -30 -28 -26 -25 -26 -24 -22 -23 -23 -24 -23 -23 -23 -23 -22 -22 -22 -21 -21 -20 -19 -19 -19 -19 -19 -19 -18 -18 -18 -18 -18 -18 -18 -18 -18 -19 -19 -19 -19
-34 -34 -34 -34 -34 -32 -30 -28 -28 -27 -26 -24 -23 -23 -24 -24 -24 -24 -24 -23 -23 -22 -22 -21 -21 -20 -20 -19 -19 -19 -19 -19 -19 -18 -18 -18 -18 -18 -18 -19 -19 -19 -19 -19
-34 -34 -34 -34 -34 -34 -33 -31 -30 -29 -28 -27 -24 -24 -25 -25 -26 -25 -24 -24 -24 -23 -23 -22 -21 -21 -20 -20 -20 -19 -19 -19 -19 -19 -19 -19 -18 -19 -19 -19 -19 -19 -19 -19
-34 -34 -34 -34 -34 -34 -34 -33 -33 -31 -29 -29 -25 -25 -26 -26 -26 -26 -25 -24 -25 -24 -23 -22 -22 -21 -21 -21 -20 -19 -19 -19 -19 -19 -20 -19 -19 -19 -19 -19 -19 -19 -19 -20
-34 -34 -34 -34 -34 -34 -34 -34 -34 -33 -31 -30 -27 -27 -28 -27 -26 -26 -26 -25 -25 -26 -24 -23 -22 -22 -22 -21 -20 -20 -20 -19 -20 -19 -20 -19 -19 -19 -19 -19 -19 -19 -19 -20
-33 -33 -34 -34 -34 -34 -34 -34 -34 -34 -34 -31 -30 -28 -29 -28 -27 -27 -26 -26 -25 -26 -25 -23 -23 -23 -23 -22 -20 -20 -20 -20 -19 -20 -20 -19 -19 -19 -19 -19 -19 -19 -19 -20
-33 -33 -33 -33 -34 -34 -34 -34 -34 -34 -34 -33 -31 -28 -29 -29 -28 -27 -27 -26 -26 -25 -25 -25 -24 -24 -23 -21 -20 -21 -20 -20 -20 -20 -20 -20 -20 -19 -19 -19 -19 -19 -19 -20
-33 -33 -33 -34 -34 -34 -34 -34 -34 -34 -34 -33 -32 -29 -28 -29 -29 -29 -28 -27 -27 -26 -26 -25 -25 -25 -23 -20 -21 -21 -21 -21 -21 -20 -20 -20 -20 -20 -20 -20 -20 -20 -20 -20
-33 -33 -33 -34 -34 -35 -35 -35 -35 -35 -35 -34 -32 -31 -30 -30 -30 -29 -29 -28 -27 -27 -26 -26 -25 -23 -22 -21 -21 -21 -21 -21 -21 -21 -20 -20 -20 -20 -20 -20 -20 -20 -20 -20
-33 -33 -33 -33 -34 -35 -35 -35 -35 -35 -34 -34 -33 -31 -30 -29 -28 -28 -28 -29 -28 -27 -26 -26 -25 -22 -21 -21 -21 -21 -21 -22 -22 -21 -21 -21 -21 -20 -20 -20 -20 -20 -20 -20
-32 -32 -33 -33 -35 -35 -35 -35 -35 -35 -34 -34 -32 -31 -30 -28 -28 -28 -29 -28 -28 -28 -27 -26 -23 -22 -22 -22 -22 -22 -22 -22 -22 -22 -22 -22 -22 -22 -21 -20 -21 -21 -21 -21
-33 -33 -33 -34 -35 -35 -35 -35 -34 -34 -33 -33 -32 -31 -29 -29 -29 -28 -29 -29 -28 -28 -27 -26 -22 -23 -23 -23 -23 -23 -22 -22 -23 -23 -22 -22 -22 -22 -21 -21 -21 -21 -21 -21
-32 -33 -33 -34 -34 -34 -34 -34 -34 -33 -33 -33 -33 -31 -30 -29 -29 -29 -28 -28 -29 -29 -27 -24 -23 -23 -24 -24 -23 -23 -23 -23 -22 -22 -22 -22 -22 -22 -22 -22 -21 -21 -21 -21
-32 -33 -33 -34 -34 -34 -34 -34 -34 -34 -34 -33 -32 -30 -30 -30 -30 -29 -29 -28 -29 -29 -25 -23 -23 -24 -24 -24 -24 -23 -23 -23 -22 -22 -22 -22 -22 -22 -22 -22 -22 -22 -22 -22
-33 -34 -34 -35 -35 -34 -34 -34 -35 -35 -34 -32 -32 -31 -30 -30 -30 -29 -29 -29 -29 -26 -24 -25 -26 -26 -25 -24 -24 -23 -23 -23 -22 -22 -22 -22 -22 -23 -23 -23 -22 -22 -22 -22
-32 -33 -34 -35 -34 -34 -34 -34 -35 -34 -34 -32 -32 -31 -30 -29 -29 -29 -28 -28 -28 -27 -27 -27 -27 -27 -26 -25 -24 -23 -23 -23 -23 -22 -22 -23 -23 -23 -23 -23 -23 -22 -22 -23
Height
5562 5568 5574 5580 5586 5592 5599 5605 5612 5617 5623 5630 5633 5642 5654 5662 5661 5668 5673 5680 5684 5689 5693 5695 5700 5706 5709 5711 5714 5716 5718 5719 5721 5723 5723 5725 5725 5725 5725 5724 5724 5722 5720 5720
5550 5555 5561 5566 5572 5578 5584 5591 5597 5603 5611 5616 5623 5633 5643 5650 5652 5657 5664 5671 5677 5681 5686 5689 5692 5699 5704 5705 5709 5710 5713 5715 5717 5719 5721 5721 5721 5721 5720 5719 5719 5718 5717 5716
5541 5544 5548 5553 5557 5563 5571 5577 5584 5590 5596 5605 5612 5621 5631 5638 5644 5647 5655 5663 5668 5672 5677 5682 5686 5693 5696 5700 5704 5705 5707 5710 5713 5715 5716 5716 5716 5716 5716 5715 5714 5714 5713 5711
5530 5533 5537 5541 5544 5548 5556 5563 5570 5578 5584 5593 5601 5609 5620 5628 5635 5638 5645 5653 5657 5663 5667 5673 5677 5685 5689 5693 5697 5699 5702 5705 5707 5710 5711 5711 5712 5712 5712 5710 5710 5709 5709 5708
5517 5521 5524 5529 5533 5536 5541 5550 5557 5564 5573 5579 5587 5595 5607 5616 5624 5628 5633 5642 5649 5653 5659 5666 5672 5679 5683 5687 5690 5694 5697 5699 5702 5704 5705 5706 5707 5707 5707 5707 5705 5704 5703 5703
5501 5506 5511 5515 5519 5524 5528 5535 5543 5550 5558 5564 5573 5585 5595 5604 5612 5618 5624 5632 5637 5641 5650 5656 5662 5667 5671 5675 5681 5686 5690 5693 5696 5698 5700 5701 5703 5702 5702 5702 5701 5700 5699 5698
5481 5487 5493 5498 5503 5510 5516 5521 5528 5535 5543 5550 5561 5571 5580 5590 5599 5608 5615 5619 5627 5634 5640 5646 5651 5657 5661 5667 5673 5679 5683 5687 5689 5691 5693 5694 5699 5698 5698 5697 5695 5695 5694 5693
5458 5465 5472 5479 5486 5492 5501 5506 5512 5520 5528 5538 5546 5557 5566 5575 5584 5593 5601 5608 5618 5622 5630 5635 5640 5646 5651 5657 5663 5670 5675 5679 5682 5684 5687 5691 5692 5693 5693 5692 5692 5690 5690 5689
5434 5441 5450 5459 5465 5473 5481 5490 5496 5504 5513 5525 5533 5541 5551 5563 5573 5580 5591 5598 5605 5611 5617 5622 5626 5633 5639 5650 5655 5660 5665 5671 5675 5679 5681 5683 5688 5688 5687 5687 5687 5686 5686 5685
5412 5418 5426 5436 5444 5452 5461 5471 5479 5486 5498 5511 5518 5527 5538 5548 5559 5570 5578 5585 5591 5598 5605 5611 5617 5625 5632 5640 5646 5653 5658 5663 5667 5671 5673 5678 5681 5682 5681 5682 5685 5681 5681 5680
5397 5403 5408 5415 5423 5432 5440 5452 5461 5470 5483 5493 5502 5513 5524 5534 5545 5557 5566 5569 5576 5587 5594 5600 5606 5614 5624 5630 5637 5644 5650 5655 5659 5663 5667 5673 5673 5675 5677 5677 5676 5676 5676 5675
5388 5393 5397 5402 5406 5414 5421 5434 5444 5452 5462 5476 5486 5499 5510 5521 5532 5543 5548 5561 5568 5577 5583 5589 5594 5603 5612 5620 5626 5634 5639 5648 5654 5657 5662 5663 5666 5668 5669 5670 5670 5670 5671 5670
5379 5384 5389 5393 5397 5400 5407 5416 5424 5434 5444 5456 5470 5487 5499 5507 5517 5526 5538 5550 5557 5563 5571 5578 5584 5595 5605 5614 5621 5627 5631 5636 5641 5647 5654 5655 5658 5661 5663 5663 5664 5664 5665 5665
5371 5375 5380 5385 5389 5392 5395 5403 5409 5418 5429 5434 5453 5468 5482 5494 5501 5512 5527 5537 5544 5551 5558 5563 5569 5582 5592 5601 5608 5615 5622 5627 5631 5636 5641 5647 5650 5653 5655 5656 5657 5658 5659 5659
5363 5367 5372 5377 5382 5386 5388 5392 5397 5404 5413 5420 5438 5451 5468 5479 5490 5502 5513 5524 5532 5539 5545 5553 5561 5570 5579 5587 5594 5602 5609 5616 5621 5631 5634 5636 5640 5642 5646 5649 5650 5651 5652 5652
5356 5360 5365 5369 5374 5378 5380 5382 5390 5399 5404 5411 5424 5437 5452 5466 5478 5490 5502 5514 5521 5528 5535 5543 5551 5559 5569 5576 5585 5594 5602 5607 5613 5620 5624 5626 5629 5633 5638 5641 5642 5644 5645 5647
5350 5354 5359 5363 5367 5370 5374 5381 5390 5391 5393 5396 5407 5419 5439 5453 5467 5479 5490 5501 5510 5519 5525 5530 5539 5547 5555 5563 5571 5583 5591 5597 5604 5610 5613 5617 5621 5625 5628 5630 5634 5636 5638 5639
5345 5349 5353 5357 5361 5362 5367 5373 5378 5381 5382 5387 5392 5408 5425 5442 5453 5466 5480 5491 5500 5505 5511 5519 5525 5534 5541 5547 5562 5571 5580 5585 5592 5600 5605 5610 5611 5615 5618 5621 5623 5626 5629 5630
5339 5343 5348 5350 5352 5353 5362 5364 5367 5370 5374 5376 5383 5398 5416 5434 5446 5458 5469 5479 5485 5493 5498 5505 5514 5517 5524 5543 5552 5560 5570 5576 5582 5589 5595 5600 5602 5606 5609 5612 5614 5615 5618 5621
5333 5337 5338 5339 5339 5348 5353 5355 5356 5360 5364 5365 5373 5388 5403 5429 5441 5449 5461 5466 5474 5480 5487 5494 5496 5506 5525 5529 5540 5550 5559 5565 5571 5576 5583 5589 5593 5596 5600 5602 5604 5605 5608 5611
5320 5324 5327 5331 5336 5342 5344 5345 5348 5353 5355 5355 5368 5380 5398 5423 5434 5441 5449 5454 5461 5467 5475 5481 5485 5499 5512 5521 5529 5539 5549 5555 5559 5566 5571 5576 5581 5585 5589 5592 5594 5596 5598 5601
5314 5318 5319 5325 5327 5331 5335 5337 5341 5342 5345 5354 5366 5379 5399 5413 5424 5431 5435 5440 5448 5456 5468 5470 5477 5494 5505 5512 5520 5531 5540 5547 5551 5555 5560 5564 5567 5573 5578 5582 5585 5587 5588 5590
5309 5312 5315 5317 5318 5319 5322 5327 5334 5339 5344 5352 5363 5375 5392 5402 5414 5421 5424 5430 5437 5446 5452 5459 5479 5488 5499 5506 5513 5521 5529 5536 5540 5542 5546 5552 5557 5563 5567 5571 5575 5578 5580 5580
5302 5304 5304 5305 5304 5307 5317 5329 5335 5339 5343 5352 5363 5369 5386 5399 5406 5409 5416 5424 5431 5434 5439 5462 5473 5480 5491 5496 5502 5509 5517 5523 5529 5533 5536 5541 5546 5552 5556 5560 5564 5566 5568 5569
5294 5295 5294 5294 5301 5311 5319 5325 5327 5329 5341 5351 5359 5368 5380 5393 5397 5403 5408 5415 5419 5426 5446 5462 5465 5471 5480 5484 5489 5498 5508 5513 5518 5523 5526 5530 5536 5542 5546 5549 5552 5554 5556 5557
5287 5286 5288 5294 5303 5309 5313 5318 5321 5325 5336 5344 5355 5371 5378 5386 5390 5395 5402 5413 5421 5433 5445 5451 5453 5457 5464 5472 5479 5487 5496 5502 5508 5513 5516 5521 5527 5531 5534 5538 5541 5543 5544 5546
5281 5284 5288 5294 5299 5304 5310 5316 5319 5323 5329 5336 5346 5359 5372 5383 5385 5391 5403 5416 5425 5430 5434 5439 5444 5449 5453 5461 5470 5478 5486 5491 5497 5502 5507 5511 5515 5520 5523 5527 5530 5532 5534 5535
Wind_Speed
46 47 50 51 51 50 53 54 53 47 50 52 53 49 42 39 42 39 37 34 33 32 31 32 31 27 26 24 21 19 18 17 15 14 13 11 11 12 12 12 12 12 12 12
38 42 45 49 51 52 51 52 51 48 49 53 54 50 44 43 45 42 40 37 35 35 35 34 32 27 27 28 24 23 20 19 16 15 12 12 11 11 11 12 12 12 12 12
34 34 37 43 47 52 53 53 52 57 53 51 54 52 47 46 47 45 42 38 37 39 37 34 34 30 30 29 27 25 24 20 17 16 13 13 12 11 12 12 13 14 13 12
38 37 36 36 42 47 53 57 59 54 59 54 50 52 49 48 48 48 45 41 42 40 40 38 37 32 32 32 31 29 25 22 19 16 15 14 13 12 12 14 13 15 14 13
44 42 40 40 41 43 49 53 57 59 59 60 53 51 50 50 49 51 49 46 42 43 40 37 34 30 32 33 34 31 26 24 20 18 17 16 14 13 12 12 14 15 16 13
53 51 49 47 46 45 46 48 52 59 59 62 61 51 49 50 50 52 51 48 47 47 43 41 38 36 37 37 39 35 31 26 23 22 18 18 15 15 14 12 13 15 15 14
58 57 56 55 53 51 50 50 49 52 58 64 62 56 51 50 51 52 51 52 50 49 47 45 44 40 40 38 40 38 34 30 28 24 22 23 15 15 16 14 15 15 15 16
60 60 60 59 59 57 56 55 55 52 53 56 65 63 54 52 53 54 54 55 51 50 49 49 49 46 45 43 40 40 39 35 32 30 26 22 18 17 17 15 16 16 15 14
60 60 60 60 61 62 62 60 60 59 56 52 57 65 61 52 53 54 54 55 53 53 55 55 55 52 50 45 41 41 42 39 37 32 30 24 18 18 18 18 14 17 17 15
52 55 58 59 61 65 67 66 65 66 61 56 56 59 64 59 54 54 54 54 57 58 58 58 58 55 51 47 45 42 40 39 38 35 33 27 21 20 21 19 17 18 16 16
37 39 44 49 54 61 69 70 70 70 67 63 61 58 58 63 59 53 54 55 59 60 61 61 61 58 53 49 48 45 41 40 40 38 34 27 28 23 21 20 19 19 17 16
28 29 29 31 41 52 63 70 72 73 74 70 67 62 58 59 61 60 55 56 57 58 62 63 63 60 56 52 50 47 45 41 37 37 33 33 30 26 23 21 20 19 19 18
31 32 31 31 33 41 54 63 70 74 76 76 72 65 60 58 57 60 57 55 58 59 59 62 63 59 54 50 47 45 44 43 40 39 35 34 32 28 24 24 22 21 20 20
28 30 30 31 32 33 43 54 63 73 75 79 75 71 65 61 59 57 59 54 57 59 60 61 65 61 56 54 51 48 46 44 42 40 37 33 31 30 28 26 24 22 21 21
25 27 29 29 31 31 33 41 48 69 80 82 77 74 67 63 60 56 55 59 53 58 60 62 63 60 60 57 56 54 51 48 46 35 32 35 36 35 30 28 25 24 23 21
22 25 27 27 30 32 36 38 38 43 67 88 79 76 68 65 64 60 54 55 58 54 57 59 60 57 56 58 59 54 51 49 45 39 36 38 38 36 32 30 28 25 24 22
24 22 23 26 28 33 36 36 33 32 39 60 82 80 75 66 64 62 56 52 55 48 52 58 58 57 56 58 59 56 53 51 48 43 41 41 39 35 34 34 30 28 26 23
22 24 24 24 27 30 37 35 36 38 41 45 62 84 80 67 64 61 59 52 54 57 63 61 61 55 56 61 58 55 53 53 52 48 44 40 41 38 36 34 33 32 29 25
18 26 30 26 34 39 31 34 36 39 42 46 52 67 76 66 58 54 56 53 49 49 51 60 60 59 59 60 56 55 52 51 48 46 45 41 41 39 37 35 34 35 31 26
23 29 35 36 41 34 33 38 41 40 36 41 46 52 62 62 54 59 52 49 53 49 49 49 59 64 61 59 56 53 49 50 50 48 46 43 42 41 37 35 36 37 33 29
39 40 41 39 37 35 38 42 39 38 42 46 38 47 60 47 39 38 58 60 53 55 55 54 56 64 64 60 53 51 46 46 50 49 44 43 43 43 40 38 37 37 34 29
37 39 43 31 35 39 42 43 41 36 38 43 38 41 61 43 43 51 36 40 51 61 57 60 62 59 57 56 55 46 42 41 41 46 48 49 49 45 42 41 35 34 33 31
32 41 36 32 42 47 48 45 39 30 27 36 36 35 69 45 45 41 55 42 41 47 61 63 57 54 51 51 47 43 38 38 41 46 48 48 48 43 40 37 34 33 32 34
33 36 37 41 48 47 41 29 24 20 19 28 26 46 69 54 51 39 51 43 40 43 51 56 54 51 47 48 47 45 40 37 39 42 43 44 44 45 44 40 36 34 34 37
38 37 36 39 39 31 29 27 22 22 28 31 23 64 57 53 36 45 45 53 48 38 47 48 51 50 46 48 52 48 39 39 39 40 42 44 41 40 40 41 38 35 36 38
25 33 38 39 38 38 29 23 21 29 47 38 33 53 46 52 46 45 51 43 42 39 39 40 40 41 42 44 45 47 42 39 39 39 41 42 39 39 38 39 39 38 38 38
18 20 24 25 25 33 23 19 28 41 57 44 45 39 52 44 36 57 51 34 32 43 38 32 34 36 37 40 41 42 42 41 38 37 40 39 38 37 38 40 39 38 37 36
Wind_Direction
246 240 237 235 230 228 231 232 229 229 232 229 230 231 226 220 225 223 223 218 221 222 216 217 218 220 220 226 227 232 229 228 226 229 233 242 248 260 264 268 274 285 297 309
249 245 238 237 233 229 227 233 233 225 231 231 230 229 225 220 224 222 222 219 218 220 222 220 219 215 221 226 227 231 228 227 227 232 240 248 254 258 272 274 276 284 292 304
252 249 243 238 235 231 227 227 230 226 223 230 232 230 224 220 222 222 221 219 220 221 220 220 224 217 218 224 224 229 228 225 225 229 238 251 260 267 276 282 282 282 286 295
250 250 246 241 237 235 230 226 229 228 224 223 232 232 226 222 217 221 221 216 218 221 223 220 223 218 217 219 221 225 226 226 227 230 238 250 258 267 276 282 288 288 288 289
249 248 248 246 240 240 237 231 230 231 230 224 228 230 228 223 219 220 220 217 218 219 222 226 225 222 220 219 221 222 223 226 227 229 234 246 253 262 270 275 284 287 293 301
248 246 246 245 244 240 242 240 230 231 229 227 223 227 227 225 222 218 218 217 215 219 217 221 221 219 216 216 217 217 219 221 227 233 240 248 252 263 273 281 283 286 296 298
248 245 244 243 242 241 240 239 236 233 231 229 225 224 229 225 223 219 217 218 215 218 217 218 219 218 218 218 218 218 219 222 228 236 242 249 255 260 269 281 291 291 296 300
247 243 241 240 239 238 236 237 238 234 232 229 228 225 227 224 222 219 217 218 215 217 216 220 220 219 217 216 216 219 223 225 231 235 241 252 252 255 261 269 280 288 294 302
247 244 239 235 233 233 233 232 234 235 233 229 228 226 224 226 223 221 218 219 218 216 217 218 222 219 219 215 217 219 223 225 230 235 241 248 247 253 259 265 273 278 293 302
245 243 240 235 230 229 229 229 228 232 233 231 227 228 226 222 224 220 220 220 220 217 218 220 222 223 222 220 218 222 225 228 233 238 242 243 251 249 254 261 267 271 283 294
239 237 237 234 230 225 225 225 225 228 231 229 228 226 226 226 219 220 219 220 218 219 221 221 223 224 223 223 220 222 226 229 234 237 240 242 248 250 256 252 261 271 280 289
229 231 233 233 230 223 223 222 223 223 227 227 227 225 224 225 224 218 221 220 222 223 222 223 225 224 223 223 223 222 225 229 231 237 237 238 245 249 251 255 258 266 276 282
230 231 232 232 233 227 222 219 220 220 223 225 225 224 221 223 225 223 215 222 222 222 221 225 229 229 227 226 228 225 225 227 230 233 233 238 242 248 250 252 255 261 268 275
233 233 231 232 232 235 229 222 221 217 220 223 220 222 219 219 223 223 219 215 223 223 224 224 226 225 224 223 226 225 225 227 228 228 230 236 243 246 247 250 254 260 264 268
235 229 228 229 228 231 235 230 226 218 215 221 220 220 219 217 219 222 217 215 220 223 225 226 227 225 224 223 224 223 223 226 229 229 232 234 239 244 246 248 254 258 263 269
228 225 225 227 227 227 230 233 231 231 226 221 221 219 218 216 216 219 219 218 213 225 225 227 228 229 228 227 226 226 227 228 230 228 230 236 239 243 247 249 250 254 260 264
222 219 222 225 227 228 233 238 234 237 237 232 222 218 217 217 215 216 219 220 216 220 228 225 227 229 229 227 225 225 228 231 230 231 231 235 240 244 244 246 249 251 256 262
229 229 227 231 230 237 233 236 234 236 242 238 229 219 218 215 214 214 216 216 211 211 223 222 224 226 226 225 223 224 225 231 232 232 235 237 241 242 244 247 251 253 256 260
223 227 232 232 232 241 234 232 230 232 238 240 234 221 216 211 211 216 216 216 215 215 215 224 224 225 224 223 224 224 224 229 234 234 233 234 241 243 243 245 249 255 258 259
221 224 222 228 236 235 222 226 230 230 238 244 233 221 217 204 211 209 211 215 216 212 217 220 224 226 220 224 225 225 224 228 231 235 234 234 237 243 243 245 245 250 256 260
218 224 235 235 229 221 213 222 228 237 225 226 222 217 205 189 208 215 222 222 218 216 217 218 223 225 222 223 224 224 223 225 230 231 233 236 237 241 242 245 249 253 255 258
217 235 243 238 218 211 216 222 232 243 232 225 222 210 190 182 190 206 216 217 224 224 222 226 227 225 226 226 228 227 226 226 231 233 232 236 239 239 242 244 244 246 252 259
223 231 230 230 212 212 219 227 237 249 244 223 208 199 182 183 185 192 216 217 218 223 226 224 222 227 229 229 233 233 230 224 226 232 234 233 235 239 243 244 245 244 247 253
232 232 227 217 221 222 227 236 264 261 239 208 201 185 179 187 190 215 216 217 219 223 226 220 223 226 228 231 235 236 233 230 225 230 235 237 237 238 240 243 246 249 251 253
237 234 238 233 229 231 237 251 219 179 198 175 198 185 187 196 196 216 214 220 221 220 221 217 225 231 230 230 231 231 227 229 227 225 232 238 240 241 241 242 245 245 247 251
227 225 225 223 220 233 228 212 192 177 172 175 172 182 189 206 208 218 216 218 226 221 216 223 234 239 238 233 232 232 229 228 230 229 230 234 236 237 239 241 243 245 248 255
195 210 227 232 217 200 199 201 190 179 185 178 174 190 184 194 215 217 223 235 256 242 236 237 243 248 252 243 235 232 229 230 231 229 230 233 235 235 237 240 244 247 251 256